Weather in Vilnius

Lithuania     54˚41′21″N   25˚16′15″E
temp.,
°C
wind,
m/s
gust,
m/s
humid.,
%
clouds,
%
prec.,
mm/h
press.,
hPa
HPBL,
m
3 december, thu
thu323:00−3˚ese369499 0.1 1025310
02:00−4˚se369588 0.1 1024206
05:00−5˚se379474 0.0 1023248
08:00−4˚sse389374 0.1 1022403
11:00−3˚sse5108695 0.0 1021721
14:00−1˚sse598297 0.1 1020871
17:00−1˚sse5118695 0.0 1019771
20:00−1˚sse6138495 0.0 1018747
4 december, fri
fri423:00sse7138496 0.0 1017779
02:00+1˚sse7158498 0.0 1017761
05:00+1˚sse7158699 0.0 1015768
08:00+2˚sse71586100 0.0 1015779
11:00+2˚sse81589100 0.0 1015826
14:00+3˚sse81587100 0.0 1015824
17:00+3˚sse81686100 0.0 1015786
20:00+3˚sse81686100 0.0 1015839
5 december, sat
sat523:00+4˚sse71787100 0.0 1015872
02:00+5˚sse71688100 0.0 1016806
05:00+4˚sse7159089 0.0 1016656
08:00+5˚sse7158994 0.0 1018649
11:00+5˚sse7148798 0.0 1018782
14:00+6˚sse7148799 0.0 1019746
17:00+5˚sse81686100 0.0 1019711
20:00+5˚sse7158496 0.0 1021722
6 december, sun
sun623:00+4˚sse7158688 0.0 1021698
02:00+5˚sse7158388 0.0 1022741
05:00+3˚sse7148382 0.0 1023783
08:00+2˚sse7168387 0.0 1023696
11:00+2˚se7157923 0.0 1025628
14:00+2˚se7147633 0.0 1024678
17:00+1˚se7167525 0.0 1025643
20:00se7176313 0.0 1025609
7 december, mon
mon723:00−1˚se717560 0.0 1025623
02:00−1˚se816580 0.0 1025647
05:00−1˚se818620 0.0 1024682
08:00−1˚se816620 0.0 1024755
11:00−1˚se816570 0.0 1024838
14:00−1˚se814572 0.0 1023896
17:00−1˚se8155826 0.0 1023761
20:00−1˚se7155759 0.0 1023758